Погода в Мюнстере

Германия     51˚57′49″N   7˚37′52″E
темп.,
°C
ветер,
м/с
пор.,
м/с
влажн.,
%
обл.,
%
осадки,
мм/ч
давл.,
гПа
погр.,
м
5 декабря, сб
сб501:00+4˚ююв228489 0.3 99340
04:00+5˚юв1188100 0.3 99248
07:00+5˚ююз2594100 4.1 994230
10:00+5˚ююз4883100 0.1 997502
13:00+7˚ююз367162 0.1 999831
16:00+5˚ю368052 0.0 1000229
19:00+3˚юв238452 0.0 100155
22:00+3˚юв3587100 0.0 1002116
6 декабря, вс
вс601:00+2˚в348694 0.0 1002100
04:00+2˚всв2387100 0.0 100168
07:00+3˚всв2689100 0.0 1001210
10:00+4˚ссв2390100 0.1 1002134
13:00+5˚ссв358395 0.1 1001460
16:00+5˚с2488100 0.0 1001294
19:00+4˚с3690100 0.0 1001369
22:00+4˚ссз3595100 1.8 999239
7 декабря, пн
пн701:00+5˚с4796100 2.9 997352
04:00+5˚с2396100 1.1 993203
07:00+4˚зсз1197100 3.4 992100
10:00+5˚ю4697100 1.5 992261
13:00+5˚ююз81289100 2.7 995693
16:00+4˚ююз71193100 0.6 998697
19:00+4˚ююз4985100 1.2 1001629
22:00+3˚ю498497 0.0 1003391
8 декабря, вт
вт801:00+2˚ю249094 0.0 1005113
04:00+2˚вюв3489100 0.0 1005102
07:00+2˚юв358798 0.0 1007109
10:00+2˚юв2485100 0.0 1008125
13:00+4˚вюв2376100 0.0 1008209
16:00+3˚вюв228219 0.0 100927
19:00+2˚в23889 0.0 101045
22:00+1˚вюв22890 0.0 101141
9 декабря, ср
ср901:00+1˚в128945 0.0 101222
04:00+1˚с228892 0.0 101136
07:00+1˚ссв128896 0.0 101227
10:00+2˚с1288100 0.0 101288
13:00+3˚ссв1186100 0.0 1011229
16:00+2˚зсз1192100 0.0 101151
19:00+2˚з229496 0.0 101153
22:00юз239136 0.0 101255